Snowfall_Accumulation
0.0 0.0 0.0 0.0 0.0 0.0 0.0 0.0 0.1 0.3 0.1 0.0 0.0 0.0 0.0 0.0 0.0 0.0 0.0 0.0 0.0 0.0 0.0 0.0 0.0 0.0 0.0 0.0 0.0 0.0 0.0 0.0 0.0 0.0 0.0 0.0 0.0 0.0
0.0 0.0 0.0 0.0 0.0 0.0 0.0 0.0 0.0 0.1 0.1 0.0 0.0 0.0 0.0 0.0 0.0 0.0 0.0 0.0 0.0 0.1 0.1 0.0 0.0 0.0 0.0 0.1 0.0 0.0 0.0 0.0 0.0 0.0 0.0 0.0 0.0 0.0
0.0 0.0 0.0 0.0 0.0 0.0 0.0 0.0 0.1 0.2 0.2 0.0 0.0 0.1 0.1 0.1 0.1 0.1 0.0 0.0 0.0 0.1 0.2 0.2 0.2 0.2 0.1 0.1 0.1 0.1 0.1 0.0 0.0 0.0 0.0 0.0 0.0 0.0
0.0 0.0 0.0 0.0 0.1 0.0 0.1 0.1 0.2 0.2 0.5 0.6 0.3 0.2 0.2 0.2 0.1 0.1 0.1 0.1 0.1 0.1 0.2 0.2 0.2 0.3 0.3 0.3 0.2 0.2 0.1 0.1 0.1 0.0 0.0 0.0 0.0 0.0
0.0 0.1 0.0 0.1 0.2 0.2 0.3 0.4 0.4 0.3 0.8 1.3 0.7 0.3 0.3 0.2 0.2 0.1 0.1 0.0 0.0 0.0 0.0 0.1 0.1 0.3 0.3 0.4 0.4 0.3 0.3 0.3 0.2 0.1 0.1 0.0 0.0 0.0
0.2 0.4 0.5 0.7 0.9 0.8 0.8 0.8 0.8 0.9 1.0 1.3 1.5 1.2 0.7 0.4 0.4 0.7 0.3 0.2 0.1 0.0 0.0 0.1 0.2 0.3 0.3 0.2 0.2 0.3 0.3 0.4 0.4 0.4 0.3 0.3 0.2 0.1
0.6 0.9 0.8 0.6 0.3 0.3 0.6 1.1 1.0 1.3 2.0 2.5 2.3 1.8 1.2 0.9 0.7 0.7 1.0 0.5 0.3 0.1 0.1 0.1 0.1 0.1 0.0 0.0 0.0 0.0 0.1 0.4 0.6 0.6 0.4 0.4 0.4 0.3
0.8 0.8 0.9 0.8 0.4 0.4 0.4 0.7 1.5 2.4 3.3 3.5 3.0 2.1 1.1 0.6 0.5 1.2 2.4 2.6 2.4 0.2 0.3 0.2 0.1 0.1 0.0 0.0 0.1 0.2 0.5 0.7 0.8 0.7 0.6 0.6 0.5 0.4
0.8 0.7 0.4 0.3 0.4 0.3 0.3 0.9 1.4 1.9 2.3 2.5 2.1 1.3 1.3 1.2 2.1 3.2 3.1 3.6 2.7 1.0 0.6 0.8 0.2 0.4 0.1 0.1 0.2 0.2 0.4 0.5 0.7 0.7 0.7 0.6 0.5 0.5
0.6 0.4 0.5 0.4 0.3 0.7 1.3 1.9 1.2 0.7 0.7 0.7 1.0 1.1 1.2 1.3 2.3 3.4 3.2 2.5 1.1 0.6 0.5 2.4 0.9 0.5 0.1 0.2 0.2 0.3 0.5 0.6 0.9 0.9 0.9 0.9 0.8 0.7
0.3 0.3 0.5 0.5 0.6 1.8 2.7 2.4 1.2 0.3 0.2 0.5 0.9 0.9 0.8 0.8 1.0 2.5 4.2 4.9 3.7 1.4 0.8 2.3 1.5 1.0 0.4 0.2 0.1 0.4 0.8 0.8 0.9 1.0 1.0 0.9 1.0 1.0
0.3 0.3 0.4 0.5 1.4 2.7 2.6 2.1 1.3 0.7 1.0 0.8 0.4 0.2 0.2 0.3 0.5 2.5 6.7 10.0 7.7 4.8 1.2 2.7 3.1 3.2 3.7 0.5 0.2 0.4 0.6 0.7 0.8 1.0 1.0 1.1 1.1 1.3
0.8 0.4 0.1 1.0 2.2 2.4 1.8 1.0 1.2 1.9 1.5 0.6 0.4 0.3 0.2 0.3 0.6 1.1 3.6 9.6 12.2 7.9 2.7 6.5 7.7 4.5 6.6 2.9 0.3 0.3 1.0 1.8 2.1 1.8 1.3 1.1 1.2 1.6
1.0 0.6 0.9 1.7 1.7 1.1 0.5 0.7 1.3 1.1 0.5 0.7 0.8 0.8 0.9 1.0 0.8 1.0 1.5 3.2 6.3 7.5 4.6 8.3 12.8 9.1 10.3 8.6 5.1 3.4 2.4 3.2 5.0 5.5 3.1 1.8 1.2 0.9
1.1 1.5 1.8 1.2 0.5 0.3 0.3 0.5 0.6 0.6 1.5 2.3 2.0 1.6 1.0 1.2 1.3 1.4 1.4 1.9 2.7 3.4 3.9 5.4 9.4 10.0 11.9 12.0 9.0 6.7 6.9 6.2 6.8 8.0 5.3 3.2 2.2 1.2
1.6 1.5 0.8 0.4 0.3 0.3 0.4 0.4 0.5 0.9 2.2 3.4 3.0 1.9 1.6 1.7 2.0 2.5 3.8 4.0 4.8 3.9 3.6 4.4 6.1 9.3 10.9 8.8 9.6 8.9 9.3 12.2 9.7 6.8 4.2 3.1 2.0 1.6
2.0 1.0 0.5 0.5 0.6 0.6 0.5 0.5 0.6 0.8 1.5 2.3 3.3 3.4 2.8 2.5 2.7 3.2 5.2 6.5 7.4 6.1 5.3 4.3 4.1 4.9 6.7 7.9 8.8 8.1 9.5 11.4 8.7 5.6 4.5 4.6 2.4 1.5
1.4 1.3 1.3 1.2 1.2 1.2 1.2 1.2 1.0 1.2 2.1 3.5 4.2 4.4 4.7 4.5 4.5 4.3 6.0 7.9 7.9 6.8 6.4 5.3 5.1 5.3 4.9 4.7 6.7 9.4 10.1 10.8 7.5 5.6 5.0 6.6 5.7 2.5
1.4 1.7 1.9 1.8 1.7 1.7 1.7 2.0 2.3 1.8 2.9 4.4 5.4 5.6 5.9 5.6 6.1 6.3 7.0 7.6 7.4 6.5 5.3 5.0 6.2 9.6 10.7 7.0 4.5 7.2 11.2 11.0 8.4 6.5 4.8 6.7 8.2 5.1
1.6 2.2 2.2 2.0 2.0 2.6 2.9 3.2 3.4 2.9 3.5 4.7 5.6 6.1 6.9 7.7 7.6 7.6 7.9 8.4 8.0 6.1 4.3 3.0 4.5 9.1 14.5 13.1 9.8 8.0 6.7 9.8 11.1 10.9 6.8 3.9 3.7 1.6
2.2 2.4 2.3 2.3 3.0 3.5 3.9 4.3 4.8 5.4 5.8 7.0 6.9 7.1 7.9 9.1 8.6 7.8 7.5 6.9 6.4 5.9 5.2 3.5 3.0 4.7 8.2 10.2 9.2 7.1 7.3 5.6 6.6 11.8 12.2 10.7 8.7 6.6
2.5 2.8 3.0 2.9 3.5 4.4 4.6 5.0 5.5 5.7 6.4 7.3 7.7 8.1 8.7 9.7 9.4 7.8 6.8 6.6 5.9 5.5 5.1 3.6 2.9 3.7 6.1 9.2 7.9 5.6 5.5 5.3 4.3 3.6 5.3 9.1 16.0 17.5
3.3 3.3 3.3 3.5 4.1 4.6 5.1 5.5 6.1 6.3 7.0 8.2 8.6 8.5 8.5 8.5 7.2 6.9 6.8 6.6 6.8 6.2 5.6 5.2 4.2 4.1 4.8 5.8 6.6 5.8 4.9 4.3 4.1 4.4 5.8 3.9 3.8 4.7